• In Slovakia
  • List of Countries
  • For 7 days
  • Water Temperature
  • Satellite Maps
  • Weather Map
  • Weather Widgets
  • user-avatar
    Login

    Hourly Weather Ischgl

    Today, 11 December, Monday

    Time Temperature Precipitation Wind Pressure Humidity
    00:00 -11°C° 0.1 mm 4 mps 557 mmHg 85%
    01:00 -12°C° 0.1 mm 5 mps 557 mmHg 85%
    02:00 -11°C° 0.1 mm 5 mps 557 mmHg 85%
    03:00 -10°C° 0.1 mm 4 mps 557 mmHg 86%
    04:00 -9°C° 0.1 mm 4 mps 557 mmHg 86%
    05:00 -10°C° 0.2 mm 5 mps 557 mmHg 86%
    06:00 -8°C° 0.2 mm 5 mps 557 mmHg 86%
    07:00 -8°C° 0.2 mm 5 mps 557 mmHg 86%
    08:00 -7°C° 0.3 mm 5 mps 557 mmHg 86%
    09:00 -6°C° 0.3 mm 5 mps 556 mmHg 86%
    10:00 -6°C° 0.3 mm 5 mps 556 mmHg 86%
    11:00 -5°C° 0.3 mm 5 mps 556 mmHg 87%
    12:00 -5°C° 0.3 mm 5 mps 556 mmHg 87%
    13:00 -5°C° 0.3 mm 5 mps 556 mmHg 88%
    14:00 -5°C° 0.4 mm 5 mps 556 mmHg 88%
    15:00 -5°C° 0.4 mm 5 mps 556 mmHg 87%
    16:00 -5°C° 0.4 mm 5 mps 556 mmHg 87%
    17:00 -5°C° 1.1 mm 4 mps 556 mmHg 89%
    18:00 -5°C° 1.1 mm 4 mps 556 mmHg 91%
    19:00 -5°C° 1.1 mm 3 mps 557 mmHg 93%
    20:00 -6°C° 2.4 mm 3 mps 557 mmHg 94%
    21:00 -6°C° 2.4 mm 3 mps 557 mmHg 95%
    22:00 -6°C° 2.4 mm 3 mps 557 mmHg 96%
    23:00 -6°C° 3 mm 3 mps 558 mmHg 96%

    Tomorrow, 12 December, Tuesday

    Time Temperature Precipitation Wind Pressure Humidity
    00:00 -6°C° 3 mm 3 mps 558 mmHg 96%
    01:00 -6°C° 3 mm 3 mps 558 mmHg 96%
    02:00 -6°C° 2.1 mm 3 mps 559 mmHg 96%
    03:00 -7°C° 2.1 mm 3 mps 559 mmHg 96%
    04:00 -7°C° 2.1 mm 3 mps 559 mmHg 96%
    05:00 -7°C° 1.3 mm 3 mps 560 mmHg 96%
    06:00 -8°C° 1.3 mm 3 mps 561 mmHg 97%
    07:00 -8°C° 1.3 mm 3 mps 562 mmHg 97%
    08:00 -8°C° 1 mm 3 mps 562 mmHg 96%
    09:00 -9°C° 1 mm 3 mps 563 mmHg 96%
    10:00 -10°C° 1 mm 3 mps 564 mmHg 96%
    11:00 -9°C° 0.6 mm 2 mps 564 mmHg 95%
    12:00 -9°C° 0.6 mm 2 mps 564 mmHg 95%
    13:00 -9°C° 0.6 mm 2 mps 564 mmHg 94%
    14:00 -10°C° 0.4 mm 2 mps 565 mmHg 94%
    15:00 -12°C° 0.4 mm 2 mps 565 mmHg 95%
    16:00 -12°C° 0.4 mm 2 mps 565 mmHg 95%
    17:00 -13°C° 0.3 mm 2 mps 565 mmHg 95%
    18:00 -14°C° 0.3 mm 2 mps 565 mmHg 95%
    19:00 -14°C° 0.3 mm 2 mps 565 mmHg 95%
    20:00 -14°C° 0.2 mm 2 mps 566 mmHg 94%
    21:00 -14°C° 0.2 mm 2 mps 566 mmHg 94%
    22:00 -14°C° 0.2 mm 2 mps 567 mmHg 94%
    23:00 -15°C° 0.1 mm 2 mps 567 mmHg 93%

    Day after tomorrow, 13 December, Wednesday

    Time Temperature Precipitation Wind Pressure Humidity
    00:00 -13°C° 0.1 mm 1 mps 567 mmHg 93%
    01:00 -14°C° 0.1 mm 1 mps 567 mmHg 92%
    02:00 -15°C° 0 mm 1 mps 567 mmHg 92%
    03:00 -16°C° 0 mm 1 mps 566 mmHg 91%
    04:00 -19°C° 0 mm 2 mps 565 mmHg 90%
    05:00 -19°C° 0 mm 2 mps 565 mmHg 88%
    06:00 -19°C° 0 mm 2 mps 566 mmHg 85%
    07:00 -20°C° 0 mm 2 mps 566 mmHg 83%
    08:00 -18°C° 0 mm 2 mps 566 mmHg 80%
    09:00 -16°C° 0 mm 2 mps 567 mmHg 77%
    10:00 -15°C° 0 mm 2 mps 568 mmHg 74%
    11:00 -13°C° 0 mm 2 mps 568 mmHg 73%
    12:00 -10°C° 0 mm 2 mps 568 mmHg 73%
    13:00 -9°C° 0 mm 3 mps 569 mmHg 72%
    14:00 -10°C° 0 mm 3 mps 568 mmHg 76%
    15:00 -12°C° 0 mm 3 mps 567 mmHg 79%
    16:00 -13°C° 0 mm 3 mps 567 mmHg 83%
    17:00 -13°C° 0 mm 3 mps 566 mmHg 82%
    18:00 -14°C° 0 mm 3 mps 566 mmHg 81%
    19:00 -14°C° 0 mm 3 mps 566 mmHg 80%
    20:00 -14°C° 0 mm 3 mps 566 mmHg 77%
    21:00 -14°C° 0 mm 3 mps 566 mmHg 73%
    22:00 -14°C° 0 mm 3 mps 566 mmHg 70%
    23:00 -14°C° 0 mm 3 mps 565 mmHg 68%

    14 December, Thursday

    Time Temperature Precipitation Wind Pressure Humidity
    00:00 -14°C° 0 mm 3 mps 565 mmHg 66%
    01:00 -14°C° 0 mm 3 mps 565 mmHg 63%
    02:00 -14°C° 0.1 mm 3 mps 565 mmHg 68%
    03:00 -13°C° 0.1 mm 3 mps 565 mmHg 72%
    04:00 -13°C° 0.1 mm 3 mps 565 mmHg 77%
    05:00 -12°C° 0.6 mm 3 mps 565 mmHg 81%
    06:00 -12°C° 0.6 mm 3 mps 565 mmHg 86%
    07:00 -10°C° 0.6 mm 3 mps 565 mmHg 91%
    08:00 -10°C° 1 mm 3 mps 565 mmHg 91%
    09:00 -9°C° 1 mm 3 mps 565 mmHg 91%
    10:00 -9°C° 1 mm 3 mps 566 mmHg 91%
    11:00 -8°C° 0.3 mm 3 mps 565 mmHg 91%
    12:00 -7°C° 0.3 mm 3 mps 565 mmHg 90%
    13:00 -6°C° 0.3 mm 3 mps 565 mmHg 89%
    14:00 -7°C° 0 mm 3 mps 564 mmHg 89%
    15:00 -7°C° 0 mm 3 mps 564 mmHg 88%
    16:00 -8°C° 0 mm 3 mps 563 mmHg 88%
    17:00 -10°C° 0 mm 4 mps 562 mmHg 88%
    18:00 -10°C° 0 mm 4 mps 562 mmHg 87%
    19:00 -11°C° 0 mm 4 mps 561 mmHg 87%
    20:00 -11°C° 0 mm 4 mps 561 mmHg 86%
    21:00 -11°C° 0 mm 4 mps 561 mmHg 86%
    22:00 -12°C° 0 mm 5 mps 560 mmHg 85%
    23:00 -10°C° 0.2 mm 4 mps 561 mmHg 86%

    15 December, Friday

    Time Temperature Precipitation Wind Pressure Humidity
    00:00 -10°C° 0.2 mm 4 mps 561 mmHg 88%
    01:00 -10°C° 0.2 mm 4 mps 561 mmHg 89%
    02:00 -9°C° 0.7 mm 3 mps 561 mmHg 91%
    03:00 -10°C° 0.7 mm 3 mps 561 mmHg 93%
    04:00 -9°C° 0.7 mm 2 mps 561 mmHg 95%
    05:00 -9°C° 0.4 mm 2 mps 561 mmHg 95%
    06:00 -10°C° 0.4 mm 2 mps 561 mmHg 95%
    07:00 -9°C° 0.4 mm 1 mps 561 mmHg 96%
    08:00 -9°C° 0.3 mm 1 mps 561 mmHg 95%
    09:00 -9°C° 0.3 mm 1 mps 561 mmHg 94%
    10:00 -9°C° 0.3 mm 1 mps 561 mmHg 93%
    11:00 -8°C° 0.5 mm 1 mps 561 mmHg 93%
    12:00 -8°C° 0.5 mm 1 mps 561 mmHg 93%
    13:00 -8°C° 0.5 mm 1 mps 560 mmHg 92%
    14:00 -8°C° 0.5 mm 1 mps 560 mmHg 93%
    15:00 -9°C° 0.5 mm 1 mps 560 mmHg 93%
    16:00 -9°C° 0.5 mm 1 mps 559 mmHg 94%
    17:00 -10°C° 0.2 mm 1 mps 559 mmHg 94%
    18:00 -10°C° 0.2 mm 1 mps 559 mmHg 94%
    19:00 -13°C° 0.2 mm 2 mps 559 mmHg 95%
    20:00 -13°C° 0.3 mm 2 mps 559 mmHg 94%
    21:00 -14°C° 0.3 mm 2 mps 559 mmHg 94%
    22:00 -14°C° 0.3 mm 2 mps 559 mmHg 93%
    23:00 -14°C° 0.1 mm 2 mps 559 mmHg 92%

    16 December, Saturday

    Time Temperature Precipitation Wind Pressure Humidity
    00:00 -15°C° 0.1 mm 2 mps 559 mmHg 91%
    01:00 -16°C° 0.1 mm 2 mps 559 mmHg 90%
    02:00 -16°C° 0 mm 2 mps 558 mmHg 90%
    03:00 -16°C° 0 mm 2 mps 558 mmHg 90%
    04:00 -16°C° 0 mm 2 mps 558 mmHg 90%
    05:00 -16°C° 0.1 mm 2 mps 559 mmHg 89%
    06:00 -16°C° 0.1 mm 2 mps 559 mmHg 89%
    07:00 -16°C° 0.1 mm 2 mps 559 mmHg 89%
    08:00 -16°C° 0.2 mm 2 mps 560 mmHg 89%
    09:00 -15°C° 0.2 mm 2 mps 561 mmHg 90%
    10:00 -15°C° 0.2 mm 2 mps 562 mmHg 91%
    11:00 -15°C° 0.2 mm 3 mps 562 mmHg 91%
    12:00 -15°C° 0.2 mm 3 mps 563 mmHg 91%
    13:00 -14°C° 0.2 mm 3 mps 563 mmHg 90%
    14:00 -14°C° 0.2 mm 3 mps 563 mmHg 91%
    15:00 -15°C° 0.2 mm 3 mps 563 mmHg 92%
    16:00 -15°C° 0.2 mm 3 mps 564 mmHg 93%
    17:00 -16°C° 0.2 mm 3 mps 564 mmHg 94%
    18:00 -17°C° 0.2 mm 3 mps 564 mmHg 94%
    19:00 -16°C° 0.2 mm 2 mps 565 mmHg 95%
    20:00 -17°C° 0.1 mm 2 mps 564 mmHg 95%
    21:00 -18°C° 0.1 mm 2 mps 564 mmHg 95%
    22:00 -19°C° 0.1 mm 2 mps 564 mmHg 95%
    23:00 -19°C° 0 mm 2 mps 564 mmHg 94%
    Show more